Regional Weather Roundup
Issued by NWS

Home | Current Version | Previous Version | Text Only | Print | Product List | Glossary On
Versions: 1 2 3 4 5 6 7 8 9 10 11 12 13 14 15 16 17 18 19 20 21 22 23 24 25 26 27 28 29 30 31 32 33 34 35 36 37 38 39 40 41 42 43 44 45 46 47 48 49 50
000
ASUS46 KPQR 110810
RWROR

OREGON REGIONAL WEATHER ROUNDUP
NATIONAL WEATHER SERVICE PORTLAND OR
100 AM PDT FRI JUL 11 2014

NOTE: "FAIR" INDICATES FEW OR NO CLOUDS BELOW 12,000 FEET WITH
NO SIGNIFICANT WEATHER AND/OR OBSTRUCTIONS TO VISIBILITY.

ORZ001>013-110900-
NORTHWEST OREGON


CITY           SKY/WX    TMP DP  RH WIND       PRES   REMARKS
ASTORIA        CLOUDY    56  53  90 SW3       29.94S
NEWPORT        CLOUDY    54  54 100 N6        29.96S FOG
PORTLAND       CLEAR     68  58  70 NW3       29.89S
VANCOUVER WA   CLEAR     64  56  75 CALM      29.89S
SCAPPOOSE      CLEAR     61  56  83 NW3       29.88S
HILLSBORO      CLEAR     62  54  74 CALM      29.89S
AURORA         CLEAR     66  56  70 CALM      29.90R
MCMINNVILLE    CLEAR     63  56  78 W5        29.89F
SALEM          CLEAR     64  56  75 CALM      29.88S
CORVALLIS      CLEAR     63  55  77 NW14      29.89S
EUGENE         CLEAR     61  54  77 CALM      29.89R
$$

ORZ021-028-110900-
SOUTHWEST OREGON


CITY           SKY/WX    TMP DP  RH WIND       PRES   REMARKS
NORTH BEND     CLOUDY    55  55 100 N3        29.96S
BROOKINGS      MOSUNNY   52  51  96 E3        29.96S
ROSEBURG       CLEAR     69  53  56 CALM      29.89R
SEXTON SUMMIT  CLEAR     70  40  33 S3        30.01S
MEDFORD        PTCLDY    77  50  38 CALM      29.87S
$$

ORZ009-041-110900-
COLUMBIA GORGE


CITY           SKY/WX    TMP DP  RH WIND       PRES   REMARKS
TROUTDALE      CLEAR     67  58  72 CALM      29.88S
THE DALLES     CLEAR     75  57  53 NW14      29.81R
$$

ORZ029>031-042>050-061>064-110900-
EASTERN OREGON


CITY           SKY/WX    TMP DP  RH WIND       PRES   REMARKS
REDMOND        CLEAR     62  36  37 S3        29.96S
BEND           SUNNY     63  43  48 W5        30.00S
KLAMATH FALLS  MOCLDY    67  52  58 CALM      30.01S
LAKEVIEW       CLEAR     61  45  55 NW7       30.06S
HERMISTON      CLEAR     70  43  37 CALM      29.81R
PENDLETON      CLEAR     69  32  25 S13       29.84S
JOHN DAY       SUNNY     66  37  34 E9        29.99R
MEACHAM        CLEAR     46  41  82 CALM      30.00S
LA GRANDE      CLEAR     54  34  47 CALM      29.93S
BAKER CITY     CLEAR     56  43  61 CALM      29.97R
BURNS          PTCLDY    61  32  33 W10       29.99F
ROME             N/A     66  49  54 SW5       29.96S
ONTARIO        CLEAR     73  44  35 CALM      29.85R
$$


USA.gov is the U.S. government's official web portal to all federal, state and local government web resources and services.